Temperature
8 8 8 8 7 7 7 7 7 7 7 7 7 7 7 7 7 7 8 8 8 8 8 8 7 7 7 7 7 7 7 7 7 7 7 7 7 7 7 7 7 7 7
8 8 8 8 8 7 7 7 7 7 7 7 7 7 7 7 7 7 7 7 7 7 8 8 8 7 7 7 7 7 7 7 7 7 7 7 7 7 7 7 7 7 7
8 8 8 8 8 7 7 7 7 7 7 7 7 7 7 7 7 7 7 8 8 8 8 8 8 8 7 7 6 6 6 6 6 6 6 6 6 7 7 7 7 7 7
8 8 8 8 8 7 7 7 7 7 7 6 6 7 7 7 7 8 8 8 8 8 7 7 7 7 7 7 7 6 6 6 6 6 6 6 6 6 6 7 7 7 7
9 8 8 8 8 7 7 7 7 7 6 6 7 7 7 7 8 8 8 7 7 7 7 7 7 7 7 7 7 6 6 6 6 6 5 5 5 5 6 6 6 6 7
8 8 8 8 7 7 7 7 7 7 6 6 6 7 7 8 8 8 8 7 7 7 7 7 7 7 7 6 6 6 6 6 6 6 5 5 5 5 5 5 5 5 6
8 8 8 8 7 7 7 7 7 6 6 6 6 7 7 8 8 7 7 7 7 7 7 6 6 6 6 6 6 6 6 6 6 5 5 5 5 5 4 4 5 5 5
8 8 8 8 7 7 7 7 6 6 6 6 6 5 6 6 6 7 7 7 7 6 6 6 6 6 6 6 6 6 6 6 6 5 5 4 4 4 4 4 4 4 4
8 8 8 8 7 7 7 7 6 6 6 6 5 5 4 4 4 5 5 6 6 6 6 5 6 6 6 5 5 5 5 5 5 5 4 3 3 3 3 4 4 4 4
8 8 8 8 7 7 7 7 6 6 6 6 5 5 4 3 2 3 4 5 5 5 5 5 5 5 5 5 5 5 4 4 4 4 3 3 2 2 2 3 3 3 4
8 8 8 7 7 7 7 6 6 6 6 5 5 4 4 4 3 2 2 4 4 5 4 4 4 4 4 4 4 4 3 3 3 3 2 2 2 2 2 2 2 2 3
8 8 8 7 7 7 6 6 6 5 5 5 4 4 4 3 3 2 1 2 2 3 4 4 4 4 3 3 3 2 2 2 2 2 1 1 1 1 1 1 1 1 2
8 8 7 7 7 6 6 6 5 5 5 5 4 4 3 3 2 2 1 1 1 2 2 3 3 2 2 2 2 1 1 1 1 0 0 0 0 0 0 -0 0 0 1
8 8 7 7 6 6 6 5 5 5 4 4 4 4 3 3 2 1 1 -0 -1 -1 -0 1 1 1 1 0 1 1 0 0 -0 -1 -1 -1 -1 -1 -1 -1 -1 -1 -0
8 7 7 6 6 6 5 5 5 4 4 4 3 3 3 2 2 1 0 -1 -2 -3 -3 -2 -1 -0 -1 -0 -0 -0 -1 -1 -2 -2 -2 -2 -2 -2 -2 -2 -2 -1 -1
7 7 6 6 6 5 5 5 4 4 4 3 3 3 2 2 1 1 -0 -1 -2 -3 -4 -3 -3 -2 -2 -2 -2 -2 -2 -2 -3 -3 -3 -3 -3 -3 -3 -2 -2 -2 -2
7 6 6 6 5 5 5 4 4 3 3 3 2 2 2 1 1 0 -1 -1 -2 -3 -4 -4 -4 -4 -4 -3 -3 -3 -3 -3 -3 -3 -3 -4 -4 -3 -3 -3 -3 -3 -2
6 6 5 5 5 4 4 4 3 3 3 2 2 1 1 0 0 -0 -1 -2 -2 -3 -4 -4 -4 -4 -5 -5 -5 -4 -4 -4 -4 -4 -4 -4 -4 -4 -3 -3 -3 -3 -3
6 5 5 5 4 4 4 3 3 3 2 2 1 1 0 -0 -1 -1 -2 -2 -3 -3 -4 -5 -5 -5 -5 -5 -5 -5 -5 -5 -4 -4 -4 -4 -4 -4 -4 -4 -3 -3 -3
5 5 5 4 4 4 3 3 2 2 2 1 1 0 -0 -1 -1 -2 -2 -3 -4 -4 -5 -5 -6 -6 -6 -5 -6 -6 -6 -5 -5 -5 -4 -4 -4 -4 -4 -4 -4 -4 -3
5 5 4 4 4 3 3 2 2 1 1 1 0 -0 -1 -1 -2 -3 -4 -4 -5 -5 -5 -6 -6 -6 -6 -6 -6 -6 -6 -6 -6 -5 -5 -4 -4 -4 -4 -4 -4 -4 -4
4 4 4 3 3 3 2 2 1 1 0 -0 -1 -1 -1 -2 -2 -3 -4 -4 -5 -5 -6 -6 -6 -6 -6 -6 -6 -6 -6 -6 -6 -5 -5 -5 -5 -5 -4 -4 -4 -4 -4
4 4 3 3 3 2 2 1 1 -0 -0 -1 -1 -2 -2 -2 -3 -3 -4 -4 -5 -5 -6 -6 -6 -6 -6 -6 -6 -6 -6 -6 -6 -6 -6 -6 -5 -5 -5 -4 -4 -4 -4
4 3 3 2 2 2 1 1 0 -0 -1 -1 -2 -2 -3 -3 -3 -4 -4 -5 -5 -5 -6 -6 -6 -6 -6 -6 -6 -6 -6 -6 -6 -6 -6 -6 -6 -5 -5 -5 -5 -4 -4
3 3 2 2 2 1 1 0 -0 -1 -1 -2 -2 -3 -3 -4 -4 -5 -6 -6 -6 -6 -6 -6 -6 -6 -6 -6 -6 -6 -6 -7 -7 -6 -6 -7 -6 -6 -5 -5 -5 -5 -5
2 2 2 1 1 1 0 -0 -1 -2 -2 -2 -3 -3 -4 -4 -5 -5 -6 -6 -6 -6 -6 -6 -6 -6 -6 -6 -6 -7 -7 -7 -7 -7 -7 -7 -7 -7 -6 -6 -5 -5 -5
Wind_Speed
7 7 7 7 7 7 7 6 6 6 6 7 8 8 10 11 12 13 14 14 15 15 17 18 18 18 18 17 17 17 17 17 17 17 17 17 17 17 17 18 18 17 17
9 7 6 7 8 8 8 8 7 6 6 6 7 8 10 11 12 13 14 14 14 15 17 17 18 17 17 18 17 17 17 17 17 17 17 18 18 18 18 19 19 19 20
10 9 6 6 8 9 8 7 6 5 4 4 5 7 8 10 11 12 13 13 14 13 14 15 15 15 15 16 16 16 16 17 17 17 17 18 18 19 19 20 20 21 21
11 9 6 6 7 6 5 4 3 2 3 3 4 4 6 8 10 11 11 11 11 11 11 12 12 13 14 14 15 15 16 16 17 17 18 18 18 19 19 20 21 21 22
10 8 6 5 5 4 3 2 1 2 2 3 4 5 5 5 7 9 8 9 9 8 8 9 11 12 14 15 15 16 16 17 17 18 18 19 19 19 20 20 21 21 22
8 7 5 4 4 2 1 1 1 1 2 3 4 5 5 5 5 4 5 6 6 7 7 9 10 11 14 16 17 18 18 18 18 19 19 20 20 20 20 21 21 22 22
7 6 4 3 3 2 2 1 1 0 1 2 3 5 5 4 4 3 3 4 5 7 8 9 11 13 14 16 18 19 19 20 20 20 20 21 21 21 21 22 22 23 23
5 5 4 3 3 2 2 2 1 1 1 1 1 2 5 6 4 3 4 3 4 6 8 11 14 15 15 16 18 20 20 20 21 21 21 22 22 23 23 23 23 24 24
6 6 5 4 3 3 2 2 2 2 0 1 0 1 1 3 4 4 4 4 4 4 6 11 14 15 16 17 17 18 20 21 22 22 22 23 23 24 24 24 25 25 25
6 6 6 6 4 3 3 2 2 2 2 1 1 1 3 3 3 5 4 4 5 6 6 8 11 15 17 17 17 19 21 21 22 23 23 24 24 25 25 26 26 26 26
5 6 6 6 4 3 2 2 2 2 2 3 2 2 2 2 5 5 7 5 5 5 6 7 10 13 16 16 17 18 21 22 23 24 25 26 26 26 27 27 27 27 27
2 4 5 5 4 2 2 1 2 2 2 3 3 3 3 3 4 5 6 7 7 5 6 6 7 9 13 15 17 20 23 24 25 26 26 26 27 27 27 27 27 28 28
2 2 3 3 2 2 2 2 1 2 2 3 4 4 4 5 4 4 5 7 7 5 5 4 5 8 12 13 15 22 24 25 26 26 27 27 27 28 28 28 28 28 28
3 3 3 3 2 2 1 1 1 2 2 3 4 4 4 5 5 4 4 5 7 5 4 6 4 7 9 12 19 24 21 25 26 27 27 28 28 28 28 28 28 28 28
3 4 4 3 2 1 1 1 1 2 2 3 5 5 4 5 5 5 5 5 4 7 7 5 4 4 10 16 20 20 19 24 27 27 28 28 28 28 28 28 28 28 28
4 4 3 2 2 1 1 1 2 3 3 4 4 5 6 5 5 5 5 6 6 7 9 4 5 7 11 16 22 21 21 27 27 27 27 27 27 27 27 27 28 28 28
4 4 3 3 2 2 2 2 3 4 5 5 5 6 7 7 6 6 5 6 7 7 12 10 6 7 9 11 15 18 20 19 20 25 27 27 27 27 26 27 27 27 27
4 4 3 3 3 3 3 4 5 5 5 6 7 7 8 7 7 6 6 7 8 8 9 15 10 7 9 10 11 12 14 17 17 24 27 27 27 26 26 26 26 26 26
4 3 3 3 3 3 4 5 5 6 6 7 7 8 8 8 8 7 8 8 8 9 9 12 13 8 7 8 10 11 12 11 16 20 23 24 25 25 26 26 26 26 25
4 4 3 4 4 4 5 5 6 6 7 8 8 8 9 8 9 9 8 9 9 9 10 11 12 10 8 8 8 9 10 8 10 13 18 21 24 25 26 26 25 25 24
4 4 3 4 4 4 5 6 6 7 8 8 8 8 9 11 14 12 10 8 8 8 9 11 12 11 9 7 8 8 12 11 10 10 10 10 11 10 13 21 23 24 24
4 3 4 4 5 5 9 12 10 7 7 8 8 8 9 11 14 19 21 20 17 13 11 11 12 13 12 10 9 11 12 13 11 5 6 9 7 10 10 10 20 24 24
4 4 5 5 6 8 12 13 14 9 7 7 8 8 8 9 15 9 16 20 19 23 22 16 15 14 14 12 13 15 13 14 14 7 8 12 8 11 10 14 22 23 23
4 4 5 6 6 9 13 14 16 9 7 8 8 9 10 10 11 12 11 11 12 13 16 13 12 14 14 13 13 14 15 14 12 9 8 11 9 9 10 9 19 22 21
4 4 5 6 7 9 13 15 16 7 7 9 9 9 10 10 17 22 15 13 13 11 17 22 23 22 25 25 20 11 10 11 12 8 5 6 7 8 8 8 11 16 16
5 5 5 6 7 9 13 16 16 6 7 8 8 9 15 16 20 22 14 12 14 12 11 12 14 16 14 16 20 11 8 11 11 8 4 4 5 5 5 4 4 4 6
Wind_Direction
185 194 204 211 219 223 228 237 251 265 276 284 286 283 286 288 289 290 291 296 301 306 310 311 310 308 306 305 302 300 299 297 295 294 292 289 287 284 282 278 274 270 269
191 194 203 213 223 227 232 236 244 253 265 272 279 280 280 284 286 288 290 293 298 304 310 312 311 310 309 307 304 303 301 298 297 296 295 294 292 288 285 282 279 275 271
198 197 200 213 227 232 234 239 250 252 262 268 273 281 281 281 282 286 290 293 297 303 311 318 320 319 318 315 311 308 306 304 301 299 297 295 293 292 289 286 282 279 275
202 196 200 218 228 224 221 227 237 249 263 271 280 284 284 285 286 289 294 297 302 308 316 326 333 336 335 331 325 320 315 311 308 304 301 298 296 293 290 289 287 284 280
198 196 204 215 211 202 208 218 216 226 270 287 287 284 282 281 288 298 302 307 313 319 325 334 342 346 346 341 336 330 323 317 312 309 306 303 299 296 293 290 287 286 285
187 187 190 197 184 167 181 191 225 235 261 290 299 296 288 291 300 300 301 314 326 334 340 343 345 345 343 339 336 330 324 317 313 309 306 302 299 296 293 290 289 286 284
170 168 166 164 158 160 177 166 163 293 328 347 342 323 314 315 317 297 307 320 330 336 342 344 339 333 330 330 329 325 321 315 310 306 303 300 297 294 291 289 287 285 283
156 158 156 152 150 137 118 113 121 102 15 30 50 350 336 336 335 322 324 315 318 329 331 330 324 319 316 315 316 318 316 312 308 304 301 298 296 294 291 288 286 284 282
136 137 139 135 130 129 135 137 141 144 183 345 194 172 296 293 307 308 309 305 302 305 311 312 307 306 306 304 305 308 309 309 306 303 300 297 295 293 290 288 286 284 282
118 122 125 125 124 122 128 143 144 153 157 230 288 239 224 224 270 304 301 293 295 293 292 296 297 298 298 297 298 303 306 305 303 302 300 298 295 293 291 289 287 286 284
107 119 125 124 123 123 131 140 140 160 173 192 211 227 251 248 232 254 286 295 296 268 271 276 284 287 292 295 296 299 302 303 302 301 299 297 295 293 291 289 288 287 286
103 111 121 122 126 129 141 161 170 187 200 211 217 212 214 230 231 237 267 289 293 279 272 266 270 280 290 295 297 303 305 304 301 299 298 296 294 292 290 289 287 285 284
148 148 128 130 133 147 163 167 177 217 217 222 229 230 227 232 232 237 263 284 289 290 278 268 260 280 292 297 303 306 304 302 300 298 296 294 292 291 289 288 286 284 283
165 158 146 145 148 156 161 166 192 232 224 235 246 245 244 246 237 232 239 274 298 293 272 269 275 272 287 302 304 304 300 300 299 297 295 293 291 289 287 286 285 284 283
156 152 150 146 149 159 178 179 219 250 248 248 254 256 253 253 246 242 238 232 252 291 295 263 269 276 296 300 299 299 293 296 298 297 296 293 291 289 287 285 284 282 282
154 152 153 157 168 188 206 213 244 252 254 259 252 256 258 258 256 249 243 242 234 255 280 264 263 276 289 295 299 299 295 298 300 299 296 294 291 289 288 286 284 282 281
160 164 170 177 196 220 225 230 248 257 258 266 265 259 262 261 259 256 249 246 247 247 274 284 264 270 272 278 288 289 290 289 291 295 296 295 293 290 288 286 285 283 282
168 172 177 192 216 229 235 240 257 259 257 264 266 265 267 269 261 258 254 253 255 250 264 285 287 276 268 271 276 279 287 290 288 293 295 294 293 291 290 289 287 285 283
173 180 188 208 229 241 248 250 250 255 255 257 260 261 265 266 267 264 259 260 261 265 260 275 286 282 275 274 277 277 277 279 284 289 292 293 291 291 290 290 289 287 285
181 197 210 223 236 247 253 257 256 257 259 259 257 256 258 258 261 265 267 261 262 265 267 275 284 286 279 271 270 278 285 275 278 283 284 285 286 288 290 291 290 290 290
194 204 218 240 249 252 251 251 252 253 256 261 262 258 258 268 274 278 278 269 264 268 273 279 285 288 285 280 276 277 287 288 278 270 272 274 277 276 279 283 286 286 285
206 213 229 244 257 263 278 286 284 263 258 260 267 268 268 276 283 290 293 294 291 286 286 284 287 287 289 284 283 284 287 290 290 250 257 274 268 273 271 266 276 279 280
209 229 242 248 258 270 286 291 291 287 265 261 264 269 278 278 292 282 286 290 288 287 286 286 285 285 286 285 285 285 282 281 284 279 280 284 272 273 272 273 279 282 282
218 234 246 253 262 274 289 293 295 290 270 264 261 262 268 272 275 284 273 271 266 269 275 279 271 273 275 277 274 279 284 285 280 271 261 278 278 275 278 272 280 282 284
229 239 248 254 262 276 289 294 295 278 269 267 264 263 269 268 282 293 292 284 282 276 282 284 284 286 289 294 296 294 291 292 292 284 251 258 275 279 278 275 276 283 290
233 245 256 256 259 269 285 292 294 274 271 272 268 264 278 284 291 295 292 286 288 287 282 283 285 288 288 289 292 287 282 284 288 288 253 246 272 288 287 266 269 282 293
Height
1555 1556 1557 1557 1557 1557 1557 1557 1556 1556 1556 1555 1554 1553 1552 1551 1550 1549 1548 1547 1545 1544 1543 1542 1541 1541 1540 1540 1539 1538 1538 1537 1536 1536 1535 1535 1534 1534 1534 1533 1533 1533 1532
1554 1554 1555 1555 1555 1555 1555 1555 1555 1554 1553 1553 1551 1550 1549 1548 1547 1545 1544 1543 1542 1540 1539 1538 1537 1536 1535 1535 1534 1534 1533 1532 1531 1531 1530 1529 1529 1529 1529 1529 1529 1528 1528
1552 1552 1553 1553 1553 1553 1553 1553 1552 1552 1551 1550 1548 1547 1546 1544 1543 1542 1540 1539 1538 1536 1535 1534 1532 1531 1530 1530 1529 1529 1528 1527 1526 1526 1525 1524 1523 1523 1523 1523 1523 1523 1523
1550 1550 1551 1551 1551 1551 1551 1550 1550 1549 1548 1546 1545 1543 1542 1541 1539 1538 1537 1535 1534 1533 1532 1530 1529 1528 1526 1525 1524 1524 1523 1522 1521 1520 1519 1519 1518 1517 1517 1516 1516 1516 1516
1547 1548 1548 1549 1549 1548 1548 1547 1547 1546 1544 1542 1541 1539 1538 1536 1535 1534 1533 1532 1531 1530 1529 1527 1526 1525 1523 1522 1520 1519 1518 1517 1516 1515 1514 1513 1512 1511 1510 1510 1510 1509 1509
1545 1545 1546 1546 1546 1545 1545 1544 1543 1542 1541 1539 1537 1535 1534 1532 1531 1530 1530 1529 1528 1527 1526 1524 1523 1521 1520 1518 1516 1514 1513 1512 1510 1509 1508 1507 1506 1505 1504 1504 1503 1502 1502
1542 1542 1543 1543 1543 1542 1542 1541 1540 1539 1537 1536 1534 1531 1530 1528 1527 1526 1527 1526 1525 1524 1523 1521 1519 1517 1516 1514 1512 1509 1508 1506 1504 1503 1502 1501 1500 1499 1498 1497 1496 1496 1495
1539 1539 1539 1539 1539 1539 1538 1537 1536 1535 1534 1533 1531 1528 1525 1524 1523 1523 1523 1522 1521 1520 1519 1517 1515 1513 1510 1508 1506 1504 1502 1500 1498 1496 1495 1494 1493 1492 1491 1490 1489 1489 1488
1535 1536 1536 1536 1536 1535 1535 1534 1533 1533 1532 1531 1529 1528 1526 1522 1519 1517 1516 1516 1515 1514 1513 1511 1509 1507 1505 1502 1500 1497 1495 1493 1491 1489 1488 1486 1485 1484 1483 1483 1482 1481 1481
1533 1533 1533 1533 1533 1532 1532 1531 1530 1530 1529 1528 1527 1526 1525 1522 1519 1512 1510 1510 1510 1508 1506 1505 1503 1501 1499 1496 1493 1490 1487 1485 1483 1481 1480 1478 1477 1476 1475 1474 1473 1473 1472
1530 1530 1530 1530 1530 1529 1529 1528 1527 1527 1525 1524 1523 1522 1520 1519 1516 1512 1504 1502 1501 1501 1499 1497 1496 1493 1491 1488 1485 1483 1480 1477 1475 1473 1471 1469 1468 1467 1466 1465 1464 1463 1463
1527 1527 1527 1527 1527 1527 1526 1525 1524 1523 1522 1521 1520 1518 1516 1514 1512 1508 1502 1496 1492 1491 1490 1490 1488 1486 1483 1480 1477 1474 1471 1469 1466 1464 1462 1460 1458 1457 1455 1455 1454 1453 1453
1524 1524 1524 1524 1524 1523 1523 1522 1521 1520 1518 1517 1516 1514 1512 1510 1507 1504 1499 1493 1487 1483 1481 1480 1480 1478 1475 1472 1469 1466 1462 1460 1457 1455 1452 1450 1448 1447 1445 1444 1443 1443 1442
1521 1521 1521 1521 1520 1520 1519 1518 1517 1516 1514 1513 1511 1509 1507 1505 1502 1499 1495 1490 1482 1476 1474 1472 1471 1471 1468 1464 1461 1457 1454 1451 1448 1445 1443 1441 1439 1437 1436 1435 1434 1433 1432
1517 1517 1517 1517 1517 1516 1515 1514 1513 1511 1510 1508 1506 1504 1501 1499 1496 1494 1491 1487 1483 1473 1465 1464 1463 1462 1461 1457 1453 1449 1445 1442 1439 1436 1434 1432 1430 1428 1426 1425 1424 1423 1422
1513 1514 1513 1513 1512 1512 1511 1509 1508 1506 1504 1503 1500 1498 1496 1493 1490 1488 1485 1482 1478 1472 1463 1457 1457 1455 1453 1449 1446 1442 1438 1435 1431 1428 1425 1423 1421 1419 1417 1416 1415 1414 1413
1510 1510 1509 1509 1508 1507 1506 1504 1503 1501 1499 1497 1495 1492 1489 1487 1484 1481 1478 1475 1472 1467 1458 1450 1450 1447 1445 1442 1438 1435 1431 1427 1423 1420 1417 1415 1413 1411 1409 1407 1406 1405 1404
1505 1505 1505 1504 1503 1502 1500 1499 1497 1495 1493 1491 1488 1486 1483 1480 1477 1474 1471 1467 1464 1460 1454 1445 1441 1440 1437 1434 1431 1427 1424 1420 1416 1413 1410 1407 1405 1403 1401 1399 1398 1396 1395
1501 1501 1500 1499 1498 1497 1495 1493 1491 1489 1487 1484 1482 1479 1476 1473 1470 1467 1463 1459 1456 1452 1447 1441 1434 1432 1429 1427 1423 1419 1416 1413 1409 1406 1402 1400 1397 1395 1393 1391 1389 1388 1386
1496 1496 1495 1494 1493 1491 1489 1487 1485 1483 1480 1478 1475 1472 1469 1466 1462 1459 1455 1452 1448 1444 1440 1435 1429 1425 1422 1419 1416 1412 1407 1404 1401 1398 1395 1392 1390 1388 1386 1383 1381 1379 1378
1491 1491 1490 1489 1488 1486 1484 1481 1478 1476 1473 1470 1468 1465 1462 1459 1455 1452 1448 1444 1441 1437 1433 1428 1423 1418 1415 1412 1409 1405 1400 1395 1392 1390 1386 1384 1382 1379 1377 1375 1372 1370 1369
1486 1485 1484 1483 1482 1480 1478 1475 1472 1469 1466 1463 1460 1457 1455 1452 1448 1445 1441 1438 1435 1431 1426 1422 1417 1413 1408 1406 1403 1399 1394 1389 1383 1382 1379 1375 1374 1370 1368 1366 1364 1362 1360
1481 1480 1479 1477 1476 1474 1471 1468 1466 1462 1459 1456 1452 1449 1446 1443 1440 1436 1432 1429 1426 1423 1420 1417 1410 1406 1402 1399 1396 1391 1387 1383 1378 1375 1373 1366 1365 1362 1360 1358 1356 1354 1353
1475 1474 1473 1471 1469 1467 1465 1462 1458 1455 1451 1448 1445 1442 1438 1435 1432 1428 1423 1419 1416 1414 1411 1408 1403 1399 1395 1392 1388 1384 1380 1374 1370 1368 1366 1360 1357 1354 1352 1350 1349 1347 1346
1469 1468 1467 1465 1462 1460 1458 1455 1451 1446 1443 1440 1437 1434 1431 1427 1423 1420 1416 1411 1407 1404 1402 1399 1396 1392 1388 1385 1382 1377 1372 1368 1362 1359 1358 1355 1350 1348 1345 1343 1342 1341 1340
1463 1461 1460 1458 1456 1453 1450 1447 1444 1439 1434 1431 1428 1426 1423 1419 1416 1413 1409 1405 1399 1395 1392 1388 1385 1382 1379 1376 1373 1370 1365 1361 1356 1352 1350 1349 1345 1343 1338 1336 1336 1335 1334